Location: East Fork Observatory
(32.9757°N, 94.4485°W)
Time: 19:54:51
(UTC-06:00)

NUDT-PHONESAT - Visible Passes

Search period start: 09 December 2019 00:00
Search period end: 19 December 2019 00:00
Orbit: 488 x 503 km, 97.4° (Epoch: 09 December)

Date Brightness Start Highest point End Pass type
(mag) Time Alt. Az. Time Alt. Az. Time Alt. Az.
09 Dec ? 05:52:44 10° ENE 05:54:54 15° E 05:57:05 10° SE visible
09 Dec ? 17:57:49 10° SSE 18:01:25 63° ENE 18:05:03 10° N visible
10 Dec ? 17:37:17 10° SE 17:40:31 31° ENE 17:43:48 10° N visible
10 Dec ? 19:12:56 10° WSW 19:14:15 12° W 19:15:34 10° WNW visible
11 Dec ? 18:50:16 10° SSW 18:53:09 22° W 18:56:04 10° NW visible
12 Dec ? 06:22:16 10° NNE 06:25:45 38° E 06:29:11 10° SSE visible
12 Dec ? 18:28:38 10° S 18:32:07 43° W 18:35:38 10° NNW visible
13 Dec ? 06:01:56 10° NE 06:04:43 20° E 06:07:27 10° SE visible
13 Dec ? 18:07:29 10° SSE 18:11:07 89° E 18:14:49 10° N visible
14 Dec ? 05:42:56 10° E 05:43:35 10° E 05:44:14 10° ESE visible
14 Dec ? 17:46:45 10° SSE 17:50:12 42° ENE 17:53:42 10° N visible
15 Dec ? 19:00:30 10° SW 19:02:54 17° W 19:05:19 10° NW visible
16 Dec ? 06:31:51 10° NNE 06:35:27 53° E 06:39:03 10° S visible
16 Dec ? 18:38:32 10° SSW 18:41:49 31° W 18:45:09 10° NNW visible
17 Dec ? 06:11:16 10° NE 06:14:26 26° E 06:17:33 10° SSE visible
17 Dec ? 18:17:11 10° S 18:20:49 65° W 18:24:28 10° NNW visible
18 Dec ? 05:51:20 10° ENE 05:53:20 14° E 05:55:19 10° SE visible
18 Dec ? 17:56:14 10° SSE 17:59:51 60° ENE 18:03:29 10° N visible
